Regional Weather Roundup
Issued by NWS Midland/Odessa, TX

Skip options and go directly to product.
Home | Oldest Version | Previous Version | Current Version | All | Text Only | Save Text | Print | Product List | Glossary On

Skip product version selection by date and time.   
639
ASUS44 KMAF 012310
RWRMAF
MIDLAND AREA WEATHER ROUNDUP
NATIONAL WEATHER SERVICE MIDLAND TX
600 PM CDT WED JUL 01 2015

...IN SOUTHWEST TEXAS AND SOUTHEAST NEW MEXICO...

CITY           SKY/WX    TMP DP  RH WIND       PRES   REMARKS
ALPINE         MOSUNNY   88  53  30 E5        30.10F
ANDREWS        FAIR      89  60  36 S10G17    30.00F
ARTESIA        SUNNY     93  54  26 SE13      29.97F
BIG SPRING     MOSUNNY   89  59  36 SE15      30.02S
CARLSBAD       SUNNY     96  55  25 SE13G22   29.94F
DRYDEN           N/A     90  64  42 E10       29.95F
FORT STOCKTON  SUNNY     90  61  37 SE14G23   29.96F
GUAD PASS      SUNNY     87  50  27 CALM      30.13F
HOBBS          MOSUNNY   90  55  31 SE12      30.02F
MARFA          MOSUNNY  N/A N/A N/A SE12      30.09F
MIDLAND AIRPK  SUNNY     91  59  34 S13       30.00S
MIDLAND INTL   SUNNY     89  61  38 S16       29.99F
ODESSA         SUNNY     89  60  37 S17       30.00F
PECOS          MOSUNNY   94  59  30 E12       29.91F
PRESIDIO       MOCLDY    97  57  25 CALM      29.90F
SEMINOLE       MOSUNNY   91  57  31 S13       30.02S
SNYDER         SUNNY     87  66  49 S13G20    29.99F
WINK           SUNNY     94  61  33 SE14G22   29.94F
$$
...OTHER STATIONS IN TEXAS...

CITY           SKY/WX    TMP DP  RH WIND       PRES   REMARKS
ABILENE        PTSUNNY   91  63  39 S16G25    29.97F
AMARILLO       PTSUNNY   92  55  28 S14       29.97F
AUSTIN         PTSUNNY   82  72  71 SW13      30.00F
BROWNSVILLE    CLOUDY    80  69  69 S10       30.00F
CORPUS CHRISTI PTSUNNY   86  70  58 S13       29.98F
DALLAS FTW     PTSUNNY   93  67  42 S18       29.92F
DEL RIO        MOSUNNY   88  71  57 SE12G22   29.93F
EL PASO        MOSUNNY   95  47  19 SE8       29.97F
HOUSTON INT    LGT RAIN  76  72  87 N6        30.05F
LUBBOCK        PTSUNNY   90  62  39 S17       29.98F
SAN ANGELO     SUNNY     88  66  48 S9        29.98F
SAN ANTONIO    PTSUNNY   82  69  64 S14       30.02F
WACO           MOSUNNY   86  71  60 S18       29.99R
WICHITA FALLS  NOT AVBL
$$
...OTHER LOCATIONS IN NEW MEXICO...

CITY           SKY/WX    TMP DP  RH WIND       PRES   REMARKS
ALAMAGORDO     SUNNY     93  45  18 SW10      29.99F
ALBUQUERQUE    MOSUNNY   93  47  20 W5        30.04F
CANNON AFB     NOT AVBL
CLOVIS         MOSUNNY   91  52  25 S6          N/A
HOLLOMAN AFB   SUNNY     94  47  19 S6        29.97F
ROSWELL        SUNNY     96  48  19 SE9       29.97F
RUIDOSO        SUNNY     84  41  21 SE14      30.23S
SANTA FE       PTSUNNY   90  44  20 E22G29    30.12F
TRUTH OR CONSE SUNNY     94  42  16 S9        30.02F
TUCUMCARI      SUNNY     99  47  17 SE6       29.95F
$$

USA.gov is the U.S. government's official web portal to all federal, state and local government web resources and services.